ONEWEB-0117 (47263 NORAD) Tracking and Keplerian Element Data
This shows tracking and keplerian element data for the satellite.
Feedback or suggestion? Click here.
Element | Value |
Catalog | 47263 |
Name | ONEWEB-0117 |
Epoch Orbit | 1689 |
Epoch Day | 106.25002315 |
Epoch Year | 2021 |
RAAN | 6.0438 |
Inclination | 87.9164 |
Eccentricity | 0.0001406 |
Argument of Perigee | 83.6785 |
Mean Anonmoly | 57.5127 |
Mean Motion | 13.19275659 |
Decay Rate | 1.3E-07 |
L1 | 1 47263U 20100F 21106.25002315 .00000013 00000-0 00000+0 0 9996 |
L2 | 2 47263 87.9164 6.0438 0001406 83.6785 57.5127 13.19275659 16897 |
Live tracking and technical data element details for ONEWEB-0117 (NORAD 47263). ONEWEB-0117 can be tracked NOW for your location showing map with azimuth and elevation plus other details from your city location.
Track the satellite on the map from your city or location and see movement details for azimuth, elevation, latitude, longitude, range, height, and movement on the map or in text.
IsCatalogInMostPopularTable: catalog: 47263, numindb: 35
Update: records affected: 1
GetName: 47263 ONEWEB-0117
Hit Count: updated at: Fri, 16 Apr 2021 10:24:05 GMT